Location: Colle Santa Colomba
(42.0333°N, 12.5667°E)
Time: 22:02:28
(UTC+00:00)

Cosmos 1459 Rocket - Pass Details

Date: 25 October 2021
Orbit: 937 x 1000 km, 83.0° (Epoch: 05 December)

Event Time Altitude Azimuth Distance (km) Brightness Sun altitude
Rises 18:37:10 0° 188° (S) 3,660 7.0 -27.4°
Reaches altitude 10° 18:39:41 10° 190° (S) 2,708 6.3 -27.8°
Maximum altitude 18:45:53 81° 277° (W) 977 3.9 -29.0°
Drops below altitude 10° 18:52:03 10° 6° (N) 2,683 6.3 -30.1°
Sets 18:54:32 0° 7° (N) 3,625 7.0 -30.6°
